User: anonymous   Login
Location: Armidale
(30.5016°S, 151.6662°E)
Time: 14:42:58
(UTC+10:00)
Language:

DX 1 - Orbit

View from above orbital plane
View from above orbital plane
View from above satellite
View from above satellite

Ground track
Ground track

The orbit data is extracted from the following two-line orbital elements,

1 40071U 14037C   21209.85275080  .00000169  00000-0  29060-4 0  9993
2 40071  98.4493  56.7367 0007236 277.2310  82.8072 14.81518872381425
Epoch (UTC): 28 July 2021 20:27:57
Eccentricity: 0.0007236
inclination: 98.4493°
perigee height: 619 km
apogee height: 629 km
right ascension of ascending node: 56.7367°
argument of perigee: 277.2310°
revolutions per day: 14.81518872
mean anomaly at epoch: 82.8072°
orbit number at epoch: 38142

The dashed part of the orbit path shows where the satellite is in the earth's shadow,  

DLR